| time (UTC) | temp F | wind direction | speed knots | gust knots | rain 1hr in | rain 24hr in | rain mn in | humidity % | barometer mb |
| 20260902074530 | 51 | 96 | 0.9 | 4.3 | 0.00 | 0.00 | 0.00 | 77 | 1012.0 |
| 20260902070030 | 55 | 302 | 3.5 | 7.8 | 0.00 | 0.00 | 0.00 | 74 | 1012.2 |
| 20260902064532 | 56 | 288 | 4.3 | 13.9 | 0.00 | 0.00 | 0.00 | 74 | 1012.3 |
| 20260902063035 | 56 | 288 | 4.3 | 19.1 | 0.00 | 0.00 | 0.00 | 73 | 1012.5 |
| 20260902061537 | 56 | 270 | 4.3 | 14.8 | 0.00 | 0.00 | 0.00 | 73 | 1012.6 |
| 20260902060036 | 56 | 296 | 5.2 | 12.2 | 0.00 | 0.00 | 0.00 | 72 | 1012.7 |
| 20260902053036 | 56 | 291 | 4.3 | 12.2 | 0.00 | 0.00 | 0.00 | 73 | 1012.6 |
| 20260902051534 | 56 | 268 | 4.3 | 10.4 | 0.00 | 0.00 | 0.00 | 73 | 1012.4 |
| 20260902050034 | 57 | 287 | 6.1 | 12.2 | 0.00 | 0.00 | 0.00 | 73 | 1012.5 |
| 20260902044534 | 57 | 278 | 5.2 | 13.9 | 0.00 | 0.00 | 0.00 | 72 | 1012.3 |
| 20260902043108 | 57 | 296 | 6.1 | 13.9 | 0.00 | 0.00 | 0.00 | 72 | 1012.1 |
| 20260902041536 | 57 | 313 | 5.2 | 13.9 | 0.00 | 0.00 | 0.00 | 72 | 1012.3 |
| 20260902040034 | 57 | 316 | 5.2 | 12.2 | 0.00 | 0.00 | 0.00 | 71 | 1012.0 |
| 20260902034531 | 57 | 279 | 3.5 | 9.6 | 0.00 | 0.00 | 0.00 | 70 | 1011.8 |
| 20260902033106 | 57 | 301 | 2.6 | 7.0 | 0.00 | 0.00 | 0.00 | 70 | 1011.5 |
| 20260902031644 | 57 | 299 | 3.5 | 10.4 | 0.00 | 0.00 | 0.00 | 68 | 1011.4 |
| 20260902030030 | 58 | 324 | 2.6 | 7.0 | 0.00 | 0.00 | 0.00 | 67 | 1011.5 |
| 20260902024531 | 58 | 260 | 5.2 | 15.6 | 0.00 | 0.00 | 0.00 | 67 | 1011.8 |
| 20260902023031 | 58 | 259 | 3.5 | 9.6 | 0.00 | 0.00 | 0.00 | 67 | 1011.5 |
| 20260902021607 | 59 | 270 | 4.3 | 10.4 | 0.00 | 0.00 | 0.00 | 65 | 1011.6 |
| 20260902020035 | 60 | 266 | 2.6 | 10.4 | 0.00 | 0.00 | 0.00 | 64 | 1011.7 |
| 20260902014535 | 60 | 251 | 3.5 | 14.8 | 0.00 | 0.00 | 0.00 | 63 | 1011.5 |
| 20260902013037 | 61 | 267 | 2.6 | 11.3 | 0.00 | 0.00 | 0.00 | 63 | 1011.4 |
| 20260902010031 | 63 | 289 | 3.5 | 15.6 | 0.00 | 0.00 | 0.00 | 63 | 1011.1 |
| 20260902004534 | 64 | 291 | 5.2 | 13.9 | 0.00 | 0.00 | 0.00 | 64 | 1010.9 |
| 20260902003030 | 64 | 311 | 5.2 | 14.8 | 0.00 | 0.00 | 0.00 | 64 | 1010.8 |
| 20260902000031 | 64 | 331 | 6.1 | 13.9 | 0.00 | 0.00 | 0.00 | 65 | 1010.8 |
| 20260901234542 | 64 | 1 | 7.0 | 13.9 | 0.00 | 0.00 | 0.00 | 65 | 1010.9 |
| 20260901233035 | 65 | 339 | 6.1 | 13.9 | 0.00 | 0.00 | 0.00 | 63 | 1010.7 |
| 20260901231536 | 67 | 10 | 8.7 | 16.5 | 0.00 | 0.00 | 0.00 | 61 | 1010.6 |
| 20260901230035 | 68 | 18 | 7.0 | 12.2 | 0.00 | 0.00 | 0.00 | 60 | 1010.3 |
| 20260901224533 | 69 | 355 | 8.7 | 15.6 | 0.00 | 0.00 | 0.00 | 58 | 1010.2 |
| 20260901223035 | 71 | 344 | 7.0 | 12.2 | 0.00 | 0.00 | 0.00 | 58 | 1010.2 |
| 20260901221531 | 70 | 345 | 5.2 | 9.6 | 0.00 | 0.00 | 0.00 | 59 | 1010.2 |
| 20260901220108 | 69 | 21 | 7.8 | 15.6 | 0.00 | 0.00 | 0.00 | 59 | 1010.2 |
| 20260901214532 | 69 | 28 | 9.6 | 14.8 | 0.00 | 0.00 | 0.00 | 59 | 1010.3 |
| 20260901213035 | 69 | 16 | 9.6 | 13.9 | 0.00 | 0.00 | 0.00 | 59 | 1010.5 |
| 20260901211605 | 69 | 8 | 7.8 | 13.0 | 0.00 | 0.00 | 0.00 | 59 | 1010.6 |
| 20260901210030 | 69 | 7 | 7.8 | 13.0 | 0.00 | 0.00 | 0.00 | 59 | 1010.7 |
| 20260901204534 | 69 | 12 | 7.8 | 13.9 | 0.00 | 0.00 | 0.00 | 58 | 1010.8 |
| 20260901203036 | 68 | 19 | 7.8 | 13.9 | 0.00 | 0.00 | 0.00 | 58 | 1011.0 |
| 20260901201535 | 68 | 360 | 7.0 | 12.2 | 0.00 | 0.00 | 0.00 | 59 | 1011.2 |
| 20260901200032 | 67 | 10 | 7.8 | 12.2 | 0.00 | 0.00 | 0.00 | 59 | 1011.4 |
| 20260901194534 | 68 | 8 | 7.8 | 13.0 | 0.00 | 0.00 | 0.00 | 59 | 1011.5 |
| 20260901191537 | 67 | 16 | 6.1 | 10.4 | 0.00 | 0.00 | 0.00 | 61 | 1011.9 |
| 20260901190035 | 66 | 359 | 6.1 | 10.4 | 0.00 | 0.00 | 0.00 | 62 | 1012.0 |
| 20260901184534 | 65 | 358 | 7.0 | 11.3 | 0.00 | 0.00 | 0.00 | 63 | 1012.0 |
| 20260901183140 | 65 | 14 | 6.1 | 11.3 | 0.00 | 0.00 | 0.00 | 64 | 1012.2 |
| 20260901181533 | 64 | 360 | 6.1 | 12.2 | 0.00 | 0.00 | 0.00 | 66 | 1012.3 |
| 20260901180030 | 65 | 353 | 6.1 | 9.6 | 0.00 | 0.00 | 0.00 | 67 | 1012.3 |
| 20260901174536 | 63 | 359 | 3.5 | 9.6 | 0.00 | 0.00 | 0.00 | 71 | 1012.4 |
| 20260901173035 | 60 | 349 | 2.6 | 6.1 | 0.00 | 0.00 | 0.00 | 72 | 1012.5 |
| 20260901171534 | 60 | 339 | 3.5 | 7.8 | 0.00 | 0.00 | 0.00 | 73 | 1012.4 |
| 20260901170031 | 60 | 7 | 3.5 | 6.1 | 0.00 | 0.00 | 0.00 | 73 | 1012.4 |
| 20260901164531 | 58 | 2 | 1.7 | 3.5 | 0.00 | 0.00 | 0.00 | 75 | 1012.4 |
| 20260901161533 | 56 | 354 | 0.9 | 4.3 | 0.00 | 0.00 | 0.00 | 79 | 1012.3 |
| 20260901160031 | 55 | 40 | 0.0 | 2.6 | 0.00 | 0.00 | 0.00 | 80 | 1012.2 |
| 20260901154608 | 54 | 30 | 1.7 | 5.2 | 0.00 | 0.00 | 0.00 | 81 | 1012.1 |
| 20260901150037 | 48 | 159 | 2.6 | 5.2 | 0.00 | 0.00 | 0.00 | 84 | 1012.0 |
| 20260901144535 | 48 | 180 | 2.6 | 3.5 | 0.00 | 0.00 | 0.00 | 84 | 1011.9 |
| 20260901141536 | 48 | 180 | 2.6 | 3.5 | 0.00 | 0.00 | 0.00 | 81 | 1011.8 |
| 20260901140038 | 48 | 180 | 2.6 | 4.3 | 0.00 | 0.00 | 0.00 | 81 | 1011.7 |
| 20260901134531 | 48 | 179 | 2.6 | 4.3 | 0.00 | 0.00 | 0.00 | 81 | 1011.5 |
| 20260901133034 | 47 | 154 | 3.5 | 6.1 | 0.00 | 0.00 | 0.00 | 81 | 1011.4 |
| 20260901131535 | 46 | 132 | 3.5 | 6.1 | 0.00 | 0.00 | 0.00 | 80 | 1011.4 |
| 20260901130030 | 46 | 157 | 3.5 | 5.2 | 0.00 | 0.00 | 0.00 | 79 | 1011.3 |
| 20260901121538 | 48 | 171 | 2.6 | 4.3 | 0.00 | 0.00 | 0.00 | 75 | 1011.3 |
| 20260901120035 | 49 | 144 | 2.6 | 5.2 | 0.00 | 0.00 | 0.00 | 73 | 1011.1 |
| 20260901114532 | 51 | 137 | 2.6 | 7.0 | 0.00 | 0.00 | 0.00 | 71 | 1011.2 |
| 20260901113111 | 50 | 152 | 4.3 | 7.0 | 0.00 | 0.00 | 0.00 | 72 | 1011.2 |
| 20260901111532 | 49 | 141 | 4.3 | 7.8 | 0.00 | 0.00 | 0.00 | 73 | 1011.1 |
| 20260901110031 | 49 | 139 | 4.3 | 6.1 | 0.00 | 0.00 | 0.00 | 73 | 1011.2 |
| 20260901104641 | 50 | 147 | 1.7 | 4.3 | 0.00 | 0.00 | 0.00 | 72 | 1011.3 |
| 20260901103037 | 50 | 142 | 2.6 | 5.2 | 0.00 | 0.00 | 0.00 | 69 | 1011.3 |
| 20260901101605 | 52 | 153 | 2.6 | 5.2 | 0.00 | 0.00 | 0.00 | 66 | 1011.3 |
| 20260901100030 | 53 | 156 | 4.3 | 7.8 | 0.00 | 0.00 | 0.00 | 65 | 1011.3 |
| 20260901093150 | 52 | 144 | 4.3 | 7.8 | 0.00 | 0.00 | 0.00 | 68 | 1011.3 |
| 20260901091533 | 51 | 142 | 4.3 | 7.0 | 0.00 | 0.00 | 0.00 | 69 | 1011.3 |
| 20260901090032 | 51 | 144 | 4.3 | 6.1 | 0.00 | 0.00 | 0.00 | 69 | 1011.3 |
| 20260901084607 | 51 | 146 | 3.5 | 5.2 | 0.00 | 0.00 | 0.00 | 68 | 1011.3 |
| 20260901083035 | 52 | 139 | 3.5 | 6.1 | 0.00 | 0.00 | 0.00 | 65 | 1011.5 |
| 20260901081537 | 55 | 148 | 3.5 | 5.2 | 0.00 | 0.00 | 0.00 | 60 | 1011.5 |
| 20260901080034 | 56 | 136 | 4.3 | 7.0 | 0.00 | 0.00 | 0.00 | 56 | 1011.4 |